| time (UTC) | temp F | wind direction | speed MPH | gust MPH | rain 1hr in | rain 24hr in | rain mn in | humidity % | barometer mb |
| 20260503222320 | 60 | 266 | 0.0 | 6.0 | 0.00 | 0.00 | 0.00 | 38 | 1013.8 |
| 20260503222026 | 59 | 0 | 0.0 | 7.0 | 0.00 | 0.00 | 0.00 | 34 | 1014.0 |
| 20260503221833 | 60 | 305 | 1.0 | 6.0 | 0.00 | 0.00 | 0.00 | 35 | 1013.9 |
| 20260503221546 | 59 | 196 | 1.0 | 5.0 | 0.00 | 0.00 | 0.00 | 33 | 1014.1 |
| 20260503221347 | 60 | 202 | 0.0 | 4.0 | 0.00 | 0.00 | 0.00 | 36 | 1013.9 |
| 20260503221026 | 59 | 0 | 0.0 | 4.0 | 0.00 | 0.00 | 0.00 | 35 | 1014.0 |
| 20260503220819 | 60 | 270 | 0.0 | 4.0 | 0.00 | 0.00 | 0.00 | 36 | 1013.9 |
| 20260503220528 | 59 | 0 | 0.0 | 4.0 | 0.00 | 0.00 | 0.00 | 37 | 1014.1 |
| 20260503220334 | 60 | 7 | 1.0 | 4.0 | 0.00 | 0.00 | 0.00 | 35 | 1013.9 |
| 20260503220039 | 60 | 0 | 0.0 | 5.0 | 0.00 | 0.00 | 0.00 | 34 | 1014.1 |
| 20260503215828 | 60 | 335 | 0.0 | 5.0 | 0.00 | 0.00 | 0.00 | 36 | 1013.9 |
| 20260503215526 | 60 | 0 | 0.0 | 5.0 | 0.00 | 0.00 | 0.00 | 34 | 1014.1 |
| 20260503215319 | 60 | 325 | 1.0 | 5.0 | 0.00 | 0.00 | 0.00 | 36 | 1013.9 |
| 20260503215025 | 60 | 0 | 0.0 | 4.0 | 0.00 | 0.00 | 0.00 | 36 | 1014.2 |
| 20260503214834 | 60 | 204 | 0.0 | 4.0 | 0.00 | 0.00 | 0.00 | 36 | 1014.0 |
| 20260503214538 | 60 | 345 | 0.0 | 8.0 | 0.00 | 0.00 | 0.00 | 36 | 1014.3 |
| 20260503214328 | 60 | 32 | 0.0 | 7.0 | 0.00 | 0.00 | 0.00 | 35 | 1014.0 |
| 20260503214025 | 60 | 0 | 1.0 | 8.0 | 0.00 | 0.00 | 0.00 | 33 | 1014.1 |
| 20260503213822 | 60 | 286 | 1.0 | 7.0 | 0.00 | 0.00 | 0.00 | 34 | 1013.9 |
| 20260503213525 | 60 | 234 | 0.0 | 3.0 | 0.00 | 0.00 | 0.00 | 34 | 1014.1 |
| 20260503213315 | 60 | 27 | 0.0 | 3.0 | 0.00 | 0.00 | 0.00 | 37 | 1014.0 |
| 20260503213045 | 60 | 0 | 0.0 | 9.0 | 0.00 | 0.00 | 0.00 | 34 | 1014.2 |
| 20260503212830 | 60 | 61 | 0.0 | 8.0 | 0.00 | 0.00 | 0.00 | 36 | 1014.0 |
| 20260503212526 | 60 | 0 | 0.0 | 9.0 | 0.00 | 0.00 | 0.00 | 37 | 1014.3 |
| 20260503212323 | 60 | 230 | 0.0 | 8.0 | 0.00 | 0.00 | 0.00 | 35 | 1014.1 |
| 20260503212026 | 60 | 291 | 0.0 | 9.0 | 0.00 | 0.00 | 0.00 | 35 | 1014.3 |
| 20260503211819 | 60 | 201 | 1.0 | 6.0 | 0.00 | 0.00 | 0.00 | 35 | 1014.1 |
| 20260503211543 | 60 | 305 | 1.0 | 7.0 | 0.00 | 0.00 | 0.00 | 35 | 1014.3 |
| 20260503211332 | 60 | 248 | 1.0 | 6.0 | 0.00 | 0.00 | 0.00 | 36 | 1014.0 |
| 20260503211029 | 60 | 0 | 1.0 | 11.0 | 0.00 | 0.00 | 0.00 | 34 | 1014.1 |
| 20260503210826 | 60 | 150 | 0.0 | 11.0 | 0.00 | 0.00 | 0.00 | 36 | 1014.0 |
| 20260503210531 | 60 | 246 | 0.0 | 11.0 | 0.00 | 0.00 | 0.00 | 33 | 1014.2 |
| 20260503210323 | 60 | 305 | 1.0 | 11.0 | 0.00 | 0.00 | 0.00 | 36 | 1014.1 |
| 20260503210040 | 60 | 348 | 2.0 | 11.0 | 0.00 | 0.00 | 0.00 | 35 | 1014.4 |
| 20260503205816 | 60 | 17 | 1.0 | 11.0 | 0.00 | 0.00 | 0.00 | 37 | 1014.1 |
| 20260503205525 | 60 | 43 | 1.0 | 7.0 | 0.00 | 0.00 | 0.00 | 34 | 1014.3 |
| 20260503205333 | 60 | 87 | 1.0 | 4.0 | 0.00 | 0.00 | 0.00 | 36 | 1014.1 |
| 20260503205025 | 60 | 0 | 0.0 | 8.0 | 0.00 | 0.00 | 0.00 | 36 | 1014.3 |
| 20260503204847 | 60 | 196 | 0.0 | 8.0 | 0.00 | 0.00 | 0.00 | 39 | 1014.1 |
| 20260503204543 | 60 | 0 | 0.0 | 8.0 | 0.00 | 0.00 | 0.00 | 34 | 1014.4 |
| 20260503204319 | 60 | 140 | 2.0 | 8.0 | 0.00 | 0.00 | 0.00 | 36 | 1014.1 |
| 20260503204029 | 59 | 255 | 1.0 | 8.0 | 0.00 | 0.00 | 0.00 | 36 | 1014.4 |
| 20260503203818 | 60 | 21 | 1.0 | 7.0 | 0.00 | 0.00 | 0.00 | 35 | 1014.1 |
| 20260503203530 | 59 | 35 | 0.0 | 9.0 | 0.00 | 0.00 | 0.00 | 36 | 1014.3 |
| 20260503203331 | 60 | 306 | 1.0 | 8.0 | 0.00 | 0.00 | 0.00 | 36 | 1014.1 |
| 20260503203040 | 59 | 0 | 1.0 | 10.0 | 0.00 | 0.00 | 0.00 | 35 | 1014.5 |
| 20260503202845 | 60 | 229 | 2.0 | 9.0 | 0.00 | 0.00 | 0.00 | 36 | 1014.1 |
| 20260503202526 | 59 | 168 | 2.0 | 10.0 | 0.00 | 0.00 | 0.00 | 34 | 1014.5 |
| 20260503202317 | 60 | 268 | 3.0 | 9.0 | 0.00 | 0.00 | 0.00 | 37 | 1014.2 |
| 20260503202026 | 59 | 44 | 1.0 | 12.0 | 0.00 | 0.00 | 0.00 | 36 | 1014.7 |
| 20260503201830 | 60 | 209 | 1.0 | 12.0 | 0.00 | 0.00 | 0.00 | 38 | 1014.2 |
| 20260503201538 | 59 | 0 | 1.0 | 12.0 | 0.00 | 0.00 | 0.00 | 35 | 1014.7 |
| 20260503201323 | 60 | 206 | 2.0 | 12.0 | 0.00 | 0.00 | 0.00 | 36 | 1014.5 |
| 20260503201025 | 59 | 0 | 2.0 | 11.0 | 0.00 | 0.00 | 0.00 | 35 | 1014.9 |
| 20260503200815 | 60 | 182 | 4.0 | 10.0 | 0.00 | 0.00 | 0.00 | 34 | 1014.3 |
| 20260503200525 | 59 | 20 | 0.0 | 11.0 | 0.00 | 0.00 | 0.00 | 36 | 1014.8 |
| 20260503200328 | 60 | 202 | 1.0 | 11.0 | 0.00 | 0.00 | 0.00 | 36 | 1014.5 |
| 20260503200038 | 59 | 209 | 1.0 | 11.0 | 0.00 | 0.00 | 0.00 | 35 | 1014.9 |
| 20260503195822 | 59 | 129 | 2.0 | 11.0 | 0.00 | 0.00 | 0.00 | 36 | 1014.4 |
| 20260503195526 | 59 | 0 | 0.0 | 8.0 | 0.00 | 0.00 | 0.00 | 37 | 1014.9 |
| 20260503195315 | 59 | 181 | 0.0 | 8.0 | 0.00 | 0.00 | 0.00 | 36 | 1014.6 |
| 20260503195029 | 58 | 224 | 1.0 | 10.0 | 0.00 | 0.00 | 0.00 | 38 | 1015.0 |
| 20260503194832 | 59 | 112 | 1.0 | 9.0 | 0.00 | 0.00 | 0.00 | 38 | 1014.6 |
| 20260503194537 | 58 | 360 | 0.0 | 10.0 | 0.00 | 0.00 | 0.00 | 37 | 1015.0 |
| 20260503194326 | 59 | 224 | 2.0 | 9.0 | 0.00 | 0.00 | 0.00 | 37 | 1014.7 |
| 20260503194026 | 58 | 207 | 1.0 | 15.0 | 0.00 | 0.00 | 0.00 | 38 | 1015.2 |
| 20260503193823 | 59 | 271 | 2.0 | 15.0 | 0.00 | 0.00 | 0.00 | 38 | 1014.8 |
| 20260503193530 | 58 | 0 | 1.0 | 15.0 | 0.00 | 0.00 | 0.00 | 41 | 1015.2 |
| 20260503193337 | 58 | 348 | 3.0 | 15.0 | 0.00 | 0.00 | 0.00 | 39 | 1014.9 |
| 20260503193045 | 58 | 34 | 3.0 | 9.0 | 0.00 | 0.00 | 0.00 | 39 | 1015.3 |
| 20260503192832 | 59 | 326 | 4.0 | 9.0 | 0.00 | 0.00 | 0.00 | 37 | 1015.0 |
| 20260503192526 | 58 | 0 | 2.0 | 8.0 | 0.00 | 0.00 | 0.00 | 37 | 1015.5 |
| 20260503192325 | 59 | 356 | 1.0 | 8.0 | 0.00 | 0.00 | 0.00 | 41 | 1015.3 |
| 20260503192026 | 58 | 0 | 1.0 | 8.0 | 0.00 | 0.00 | 0.00 | 39 | 1015.7 |
| 20260503191822 | 59 | 254 | 1.0 | 7.0 | 0.00 | 0.00 | 0.00 | 39 | 1015.2 |
| 20260503191539 | 58 | 0 | 1.0 | 8.0 | 0.00 | 0.00 | 0.00 | 37 | 1015.5 |
| 20260503191319 | 58 | 251 | 2.0 | 7.0 | 0.00 | 0.00 | 0.00 | 40 | 1015.1 |
| 20260503191029 | 58 | 0 | 2.0 | 8.0 | 0.00 | 0.00 | 0.00 | 40 | 1015.6 |
| 20260503190836 | 58 | 356 | 2.0 | 8.0 | 0.00 | 0.00 | 0.00 | 41 | 1015.4 |
| 20260503190525 | 57 | 0 | 0.0 | 7.0 | 0.00 | 0.00 | 0.00 | 42 | 1015.8 |
| 20260503190329 | 58 | 214 | 1.0 | 6.0 | 0.00 | 0.00 | 0.00 | 40 | 1015.4 |
| 20260503190042 | 57 | 0 | 0.0 | 7.0 | 0.00 | 0.00 | 0.00 | 37 | 1015.7 |
| 20260503185821 | 58 | 214 | 1.0 | 6.0 | 0.00 | 0.00 | 0.00 | 40 | 1015.4 |
| 20260503185527 | 57 | 0 | 1.0 | 8.0 | 0.00 | 0.00 | 0.00 | 39 | 1015.8 |
| 20260503185322 | 58 | 203 | 1.0 | 8.0 | 0.00 | 0.00 | 0.00 | 40 | 1015.4 |
| 20260503185026 | 57 | 257 | 0.0 | 8.0 | 0.00 | 0.00 | 0.00 | 39 | 1015.9 |
| 20260503184818 | 58 | 38 | 1.0 | 8.0 | 0.00 | 0.00 | 0.00 | 40 | 1015.5 |
| 20260503184537 | 57 | 47 | 2.0 | 8.0 | 0.00 | 0.00 | 0.00 | 40 | 1016.0 |
| 20260503184333 | 58 | 42 | 2.0 | 8.0 | 0.00 | 0.00 | 0.00 | 45 | 1015.6 |
| 20260503184025 | 57 | 26 | 0.0 | 9.0 | 0.00 | 0.00 | 0.00 | 42 | 1016.0 |
| 20260503183825 | 58 | 98 | 1.0 | 9.0 | 0.00 | 0.00 | 0.00 | 43 | 1015.7 |
| 20260503183526 | 57 | 0 | 2.0 | 9.0 | 0.00 | 0.00 | 0.00 | 42 | 1016.0 |
| 20260503183319 | 57 | 248 | 2.0 | 9.0 | 0.00 | 0.00 | 0.00 | 44 | 1015.8 |
| 20260503183052 | 57 | 24 | 1.0 | 9.0 | 0.00 | 0.00 | 0.00 | 41 | 1016.2 |
| 20260503182830 | 57 | 132 | 1.0 | 9.0 | 0.00 | 0.00 | 0.00 | 41 | 1015.7 |
| 20260503182525 | 57 | 310 | 1.0 | 9.0 | 0.00 | 0.00 | 0.00 | 40 | 1016.1 |
| 20260503182344 | 57 | 9 | 2.0 | 9.0 | 0.00 | 0.00 | 0.00 | 39 | 1015.8 |
| 20260503182027 | 57 | 267 | 0.0 | 8.0 | 0.00 | 0.00 | 0.00 | 39 | 1016.1 |
| 20260503181817 | 58 | 235 | 1.0 | 7.0 | 0.00 | 0.00 | 0.00 | 40 | 1015.8 |
| 20260503181540 | 58 | 282 | 2.0 | 7.0 | 0.00 | 0.00 | 0.00 | 38 | 1016.1 |
| 20260503181331 | 58 | 235 | 1.0 | 6.0 | 0.00 | 0.00 | 0.00 | 40 | 1015.9 |
| 20260503181025 | 58 | 201 | 0.0 | 7.0 | 0.00 | 0.00 | 0.00 | 39 | 1016.1 |
| 20260503180824 | 58 | 333 | 1.0 | 7.0 | 0.00 | 0.00 | 0.00 | 41 | 1015.9 |
| 20260503180526 | 58 | 32 | 1.0 | 12.0 | 0.00 | 0.00 | 0.00 | 39 | 1016.2 |
| 20260503180318 | 58 | 11 | 1.0 | 12.0 | 0.00 | 0.00 | 0.00 | 42 | 1015.9 |
| 20260503180037 | 58 | 257 | 1.0 | 12.0 | 0.00 | 0.00 | 0.00 | 42 | 1016.3 |
| 20260503175836 | 58 | 229 | 2.0 | 12.0 | 0.00 | 0.00 | 0.00 | 40 | 1016.0 |
| 20260503175526 | 57 | 1 | 1.0 | 11.0 | 0.00 | 0.00 | 0.00 | 42 | 1016.2 |
| 20260503175329 | 58 | 19 | 1.0 | 10.0 | 0.00 | 0.00 | 0.00 | 43 | 1016.0 |
| 20260503175028 | 57 | 0 | 3.0 | 11.0 | 0.00 | 0.00 | 0.00 | 38 | 1016.3 |
| 20260503174822 | 58 | 267 | 3.0 | 9.0 | 0.00 | 0.00 | 0.00 | 39 | 1016.2 |
| 20260503174542 | 57 | 0 | 1.0 | 10.0 | 0.00 | 0.00 | 0.00 | 38 | 1016.3 |
| 20260503174319 | 58 | 173 | 1.0 | 5.0 | 0.00 | 0.00 | 0.00 | 42 | 1016.0 |
| 20260503174025 | 57 | 192 | 0.0 | 13.0 | 0.00 | 0.00 | 0.00 | 40 | 1016.3 |
| 20260503173817 | 58 | 269 | 0.0 | 13.0 | 0.00 | 0.00 | 0.00 | 41 | 1016.0 |
| 20260503173526 | 57 | 0 | 0.0 | 14.0 | 0.00 | 0.00 | 0.00 | 40 | 1016.3 |
| 20260503173333 | 58 | 327 | 2.0 | 13.0 | 0.00 | 0.00 | 0.00 | 38 | 1016.1 |
| 20260503173039 | 57 | 283 | 3.0 | 14.0 | 0.00 | 0.00 | 0.00 | 40 | 1016.4 |
| 20260503172828 | 58 | 7 | 2.0 | 13.0 | 0.00 | 0.00 | 0.00 | 44 | 1016.2 |
| 20260503172529 | 57 | 0 | 1.0 | 14.0 | 0.00 | 0.00 | 0.00 | 39 | 1016.5 |
| 20260503172322 | 58 | 325 | 1.0 | 8.0 | 0.00 | 0.00 | 0.00 | 45 | 1016.3 |
| 20260503172029 | 57 | 234 | 2.0 | 9.0 | 0.00 | 0.00 | 0.00 | 40 | 1016.4 |
| 20260503171820 | 58 | 17 | 1.0 | 7.0 | 0.00 | 0.00 | 0.00 | 41 | 1016.3 |
| 20260503171537 | 57 | 158 | 0.0 | 9.0 | 0.00 | 0.00 | 0.00 | 41 | 1016.5 |
| 20260503171318 | 57 | 13 | 0.0 | 9.0 | 0.00 | 0.00 | 0.00 | 40 | 1016.3 |
| 20260503171025 | 57 | 37 | 1.0 | 9.0 | 0.00 | 0.00 | 0.00 | 40 | 1016.5 |
| 20260503170851 | 57 | 25 | 3.0 | 9.0 | 0.00 | 0.00 | 0.00 | 43 | 1016.3 |
| 20260503170526 | 56 | 49 | 1.0 | 8.0 | 0.00 | 0.00 | 0.00 | 40 | 1016.5 |
| 20260503170343 | 57 | 360 | 3.0 | 8.0 | 0.00 | 0.00 | 0.00 | 42 | 1016.3 |
| 20260503150819 | 53 | 94 | 1.0 | 12.0 | 0.00 | 0.01 | 0.00 | 44 | 1017.3 |
| 20260503150525 | 53 | 45 | 2.0 | 13.0 | 0.00 | 0.01 | 0.00 | 43 | 1017.4 |
| 20260503150352 | 53 | 25 | 3.0 | 11.0 | 0.00 | 0.01 | 0.00 | 45 | 1017.3 |
| 20260503131317 | 47 | 54 | 3.0 | 14.0 | 0.00 | 0.01 | 0.00 | 56 | 1017.5 |
| 20260503131032 | 46 | 10 | 2.0 | 7.0 | 0.00 | 0.01 | 0.00 | 57 | 1017.6 |
| 20260503130851 | 47 | 59 | 2.0 | 7.0 | 0.00 | 0.01 | 0.00 | 56 | 1017.5 |
| 20260503130527 | 46 | 0 | 1.0 | 12.0 | 0.00 | 0.01 | 0.00 | 55 | 1017.6 |
| 20260503130322 | 46 | 148 | 0.0 | 11.0 | 0.00 | 0.01 | 0.00 | 57 | 1017.4 |
| 20260503110526 | 38 | 0 | 0.0 | 2.0 | 0.00 | 0.01 | 0.00 | 77 | 1016.7 |
| 20260503110342 | 38 | 0.0 | 0.0 | 0.00 | 0.01 | 0.00 | 78 | 1016.4 | |
| 20260503090325 | 39 | 0.0 | 0.0 | 0.00 | 0.01 | 0.00 | 79 | 1014.9 | |
| 20260503081538 | 39 | 0.0 | 0.0 | 0.00 | 0.01 | 0.00 | 78 | 1014.9 | |
| 20260503081320 | 39 | 0.0 | 0.0 | 0.00 | 0.01 | 0.00 | 78 | 1014.5 | |
| 20260503081024 | 39 | 0.0 | 0.0 | 0.00 | 0.01 | 0.00 | 77 | 1014.9 | |
| 20260503080814 | 39 | 0.0 | 0.0 | 0.00 | 0.01 | 0.00 | 77 | 1014.5 | |
| 20260503080526 | 39 | 0.0 | 0.0 | 0.00 | 0.01 | 0.00 | 77 | 1014.9 | |
| 20260503080330 | 39 | 0.0 | 0.0 | 0.00 | 0.01 | 0.00 | 77 | 1014.5 | |
| 20260503072835 | 41 | 0.0 | 0.0 | 0.00 | 0.01 | 0.00 | 75 | 1014.2 | |
| 20260503072525 | 40 | 0.0 | 0.0 | 0.00 | 0.01 | 0.00 | 74 | 1014.6 | |
| 20260503072327 | 41 | 0.0 | 0.0 | 0.00 | 0.01 | 0.00 | 74 | 1014.2 | |
| 20260503072026 | 40 | 0.0 | 0.0 | 0.00 | 0.01 | 0.00 | 74 | 1014.6 | |
| 20260503071819 | 41 | 0.0 | 0.0 | 0.00 | 0.01 | 0.00 | 74 | 1014.1 | |
| 20260503071545 | 40 | 0.0 | 0.0 | 0.00 | 0.01 | 0.00 | 73 | 1014.5 | |
| 20260503071316 | 41 | 0.0 | 0.0 | 0.00 | 0.01 | 0.00 | 74 | 1014.2 | |
| 20260503071026 | 40 | 0.0 | 0.0 | 0.00 | 0.01 | 0.00 | 72 | 1014.4 | |
| 20260503070831 | 41 | 0.0 | 0.0 | 0.00 | 0.01 | 0.00 | 73 | 1014.1 | |
| 20260503070526 | 41 | 0.0 | 0.0 | 0.00 | 0.01 | 0.00 | 73 | 1014.3 | |
| 20260503060331 | 43 | 0.0 | 0.0 | 0.00 | 0.01 | 0.00 | 71 | 1013.7 | |
| 20260503055025 | 42 | 0.0 | 0.0 | 0.00 | 0.01 | 0.00 | 70 | 1014.1 | |
| 20260503054832 | 43 | 0.0 | 0.0 | 0.00 | 0.01 | 0.00 | 71 | 1013.8 | |
| 20260503054544 | 42 | 0.0 | 0.0 | 0.00 | 0.01 | 0.00 | 70 | 1014.2 | |
| 20260503054328 | 43 | 0.0 | 0.0 | 0.00 | 0.01 | 0.00 | 70 | 1013.7 | |
| 20260503054025 | 43 | 0.0 | 0.0 | 0.00 | 0.01 | 0.00 | 69 | 1014.1 | |
| 20260503053825 | 43 | 0.0 | 0.0 | 0.00 | 0.01 | 0.00 | 70 | 1013.7 | |
| 20260503053526 | 43 | 0.0 | 0.0 | 0.00 | 0.01 | 0.00 | 69 | 1014.1 | |
| 20260503053321 | 43 | 0.0 | 0.0 | 0.00 | 0.01 | 0.00 | 69 | 1013.7 | |
| 20260503053039 | 43 | 0.0 | 0.0 | 0.00 | 0.01 | 0.00 | 69 | 1014.1 | |
| 20260503052817 | 44 | 0.0 | 0.0 | 0.00 | 0.01 | 0.00 | 69 | 1013.7 | |
| 20260503052528 | 43 | 0.0 | 0.0 | 0.00 | 0.01 | 0.00 | 68 | 1014.1 | |
| 20260503052331 | 44 | 0.0 | 0.0 | 0.00 | 0.01 | 0.00 | 69 | 1013.7 | |
| 20260503052026 | 43 | 0.0 | 0.0 | 0.00 | 0.01 | 0.00 | 68 | 1014.1 | |
| 20260503051823 | 44 | 0.0 | 0.0 | 0.00 | 0.01 | 0.00 | 68 | 1013.8 | |
| 20260503051539 | 44 | 0.0 | 0.0 | 0.00 | 0.01 | 0.00 | 67 | 1014.2 | |
| 20260503051318 | 44 | 0.0 | 0.0 | 0.00 | 0.01 | 0.00 | 68 | 1013.8 | |
| 20260503051025 | 44 | 0.0 | 0.0 | 0.00 | 0.01 | 0.00 | 67 | 1014.2 | |
| 20260503050815 | 44 | 0.0 | 0.0 | 0.00 | 0.01 | 0.00 | 67 | 1013.8 | |
| 20260503050526 | 44 | 0.0 | 0.0 | 0.00 | 0.01 | 0.00 | 67 | 1014.2 | |
| 20260503050351 | 45 | 0.0 | 0.0 | 0.00 | 0.01 | 0.00 | 67 | 1013.9 | |
| 20260503050039 | 44 | 0.0 | 0.0 | 0.00 | 0.01 | 0.00 | 67 | 1014.3 | |
| 20260503045846 | 45 | 0.0 | 0.0 | 0.00 | 0.01 | 0.00 | 67 | 1013.9 | |
| 20260503045525 | 44 | 0.0 | 0.0 | 0.00 | 0.01 | 0.00 | 66 | 1014.2 | |
| 20260503045319 | 45 | 0.0 | 0.0 | 0.00 | 0.01 | 0.00 | 67 | 1013.9 | |
| 20260503045028 | 45 | 0.0 | 0.0 | 0.00 | 0.01 | 0.00 | 66 | 1014.3 | |
| 20260503044833 | 45 | 0.0 | 0.0 | 0.00 | 0.01 | 0.00 | 66 | 1014.0 | |
| 20260503044542 | 45 | 0.0 | 0.0 | 0.00 | 0.01 | 0.00 | 65 | 1014.4 | |
| 20260503044346 | 45 | 0.0 | 0.0 | 0.00 | 0.01 | 0.00 | 66 | 1014.0 | |
| 20260503044025 | 45 | 0.0 | 0.0 | 0.00 | 0.01 | 0.00 | 65 | 1014.5 | |
| 20260503043818 | 46 | 0.0 | 0.0 | 0.00 | 0.01 | 0.00 | 66 | 1014.0 | |
| 20260503043525 | 45 | 0.0 | 0.0 | 0.00 | 0.01 | 0.00 | 65 | 1014.4 | |
| 20260503043331 | 46 | 0.0 | 0.0 | 0.00 | 0.01 | 0.00 | 65 | 1014.0 | |
| 20260503043040 | 46 | 0.0 | 0.0 | 0.00 | 0.01 | 0.00 | 64 | 1014.3 | |
| 20260503042827 | 46 | 0.0 | 0.0 | 0.00 | 0.01 | 0.00 | 64 | 1013.9 | |
| 20260503042525 | 46 | 0.0 | 0.0 | 0.00 | 0.01 | 0.00 | 63 | 1014.4 | |
| 20260503042323 | 47 | 0.0 | 0.0 | 0.00 | 0.01 | 0.00 | 63 | 1013.9 | |
| 20260503042025 | 46 | 0.0 | 0.0 | 0.00 | 0.01 | 0.00 | 62 | 1014.4 | |
| 20260503041820 | 47 | 0.0 | 0.0 | 0.00 | 0.01 | 0.00 | 63 | 1014.0 | |
| 20260503041537 | 47 | 0.0 | 0.0 | 0.00 | 0.01 | 0.00 | 62 | 1014.4 | |
| 20260503041314 | 47 | 0.0 | 0.0 | 0.00 | 0.01 | 0.00 | 63 | 1014.0 | |
| 20260503041029 | 47 | 0.0 | 0.0 | 0.00 | 0.01 | 0.00 | 61 | 1014.4 | |
| 20260503040829 | 48 | 0.0 | 0.0 | 0.00 | 0.01 | 0.00 | 62 | 1014.0 | |
| 20260503040525 | 47 | 0.0 | 0.0 | 0.00 | 0.01 | 0.00 | 61 | 1014.4 | |
| 20260503040321 | 48 | 0.0 | 0.0 | 0.00 | 0.01 | 0.00 | 62 | 1014.1 | |
| 20260503040041 | 48 | 0.0 | 0.0 | 0.00 | 0.01 | 0.00 | 60 | 1014.5 | |
| 20260503035814 | 48 | 0.0 | 0.0 | 0.00 | 0.02 | 0.01 | 60 | 1014.1 | |
| 20260503035527 | 48 | 0.0 | 0.0 | 0.00 | 0.02 | 0.01 | 60 | 1014.4 | |
| 20260503035329 | 48 | 0.0 | 0.0 | 0.00 | 0.02 | 0.01 | 60 | 1014.0 | |
| 20260503035026 | 48 | 0.0 | 0.0 | 0.00 | 0.02 | 0.01 | 60 | 1014.3 | |
| 20260503034816 | 49 | 0.0 | 0.0 | 0.00 | 0.02 | 0.01 | 59 | 1013.9 | |
| 20260503034538 | 48 | 0.0 | 0.0 | 0.00 | 0.02 | 0.01 | 59 | 1014.3 | |
| 20260503034325 | 49 | 0.0 | 0.0 | 0.00 | 0.02 | 0.01 | 59 | 1014.0 | |
| 20260503034026 | 49 | 0.0 | 0.0 | 0.00 | 0.02 | 0.01 | 58 | 1014.3 | |
| 20260503033813 | 49 | 0.0 | 0.0 | 0.00 | 0.02 | 0.01 | 58 | 1013.9 | |
| 20260503033525 | 49 | 0.0 | 0.0 | 0.00 | 0.02 | 0.01 | 58 | 1014.2 | |
| 20260503033325 | 50 | 0.0 | 0.0 | 0.00 | 0.02 | 0.01 | 58 | 1013.9 | |
| 20260503033046 | 49 | 0.0 | 0.0 | 0.00 | 0.02 | 0.01 | 58 | 1014.3 | |
| 20260503032818 | 50 | 0.0 | 0.0 | 0.00 | 0.02 | 0.01 | 59 | 1013.9 | |
| 20260503032522 | 49 | 0.0 | 0.0 | 0.00 | 0.02 | 0.01 | 56 | 1014.3 | |
| 20260503032352 | 50 | 0.0 | 0.0 | 0.00 | 0.02 | 0.01 | 57 | 1014.0 | |
| 20260503032026 | 49 | 0.0 | 0.0 | 0.00 | 0.02 | 0.01 | 57 | 1014.3 | |
| 20260503031825 | 50 | 0.0 | 0.0 | 0.00 | 0.02 | 0.01 | 57 | 1014.0 | |
| 20260503031539 | 50 | 0.0 | 0.0 | 0.00 | 0.02 | 0.01 | 57 | 1014.3 | |
| 20260503031334 | 50 | 0.0 | 0.0 | 0.00 | 0.02 | 0.01 | 56 | 1014.0 | |
| 20260503031026 | 50 | 0.0 | 0.0 | 0.00 | 0.02 | 0.01 | 59 | 1014.3 | |
| 20260503030844 | 50 | 0.0 | 0.0 | 0.00 | 0.02 | 0.01 | 58 | 1014.0 | |
| 20260503030525 | 50 | 0.0 | 0.0 | 0.00 | 0.02 | 0.01 | 56 | 1014.2 | |
| 20260503030331 | 50 | 0.0 | 0.0 | 0.00 | 0.02 | 0.01 | 56 | 1013.9 | |
| 20260503030037 | 50 | 0.0 | 0.0 | 0.00 | 0.02 | 0.01 | 57 | 1014.0 | |
| 20260503025842 | 51 | 0.0 | 0.0 | 0.00 | 0.02 | 0.01 | 57 | 1013.8 | |
| 20260503025526 | 50 | 0.0 | 0.0 | 0.00 | 0.02 | 0.01 | 55 | 1014.1 | |
| 20260503025336 | 51 | 0.0 | 0.0 | 0.00 | 0.02 | 0.01 | 57 | 1013.8 | |
| 20260503025026 | 50 | 0.0 | 0.0 | 0.00 | 0.02 | 0.01 | 57 | 1014.1 | |
| 20260503024830 | 51 | 0.0 | 0.0 | 0.00 | 0.02 | 0.01 | 56 | 1013.9 | |
| 20260503024540 | 50 | 0.0 | 0.0 | 0.00 | 0.02 | 0.01 | 54 | 1014.2 | |
| 20260503024323 | 51 | 0.0 | 0.0 | 0.00 | 0.02 | 0.01 | 55 | 1013.9 | |
| 20260503024026 | 50 | 0.0 | 0.0 | 0.00 | 0.02 | 0.01 | 55 | 1014.1 | |
| 20260503023834 | 51 | 0.0 | 0.0 | 0.00 | 0.02 | 0.01 | 55 | 1013.8 | |
| 20260503023526 | 51 | 0.0 | 0.0 | 0.00 | 0.02 | 0.01 | 54 | 1014.1 | |
| 20260503023325 | 51 | 0.0 | 0.0 | 0.00 | 0.02 | 0.01 | 54 | 1013.8 | |
| 20260503023037 | 51 | 0.0 | 0.0 | 0.00 | 0.02 | 0.01 | 54 | 1014.1 | |
| 20260503022819 | 51 | 0.0 | 0.0 | 0.00 | 0.02 | 0.01 | 55 | 1013.8 | |
| 20260503022525 | 51 | 0.0 | 0.0 | 0.00 | 0.02 | 0.01 | 54 | 1014.0 | |
| 20260503022316 | 51 | 0.0 | 0.0 | 0.00 | 0.02 | 0.01 | 54 | 1013.8 | |
| 20260503022031 | 51 | 0.0 | 0.0 | 0.00 | 0.02 | 0.01 | 54 | 1014.1 | |
| 20260503021815 | 51 | 0.0 | 0.0 | 0.00 | 0.02 | 0.01 | 54 | 1013.8 | |
| 20260503021537 | 51 | 0.0 | 0.0 | 0.00 | 0.02 | 0.01 | 54 | 1014.0 | |
| 20260503021332 | 51 | 0.0 | 0.0 | 0.00 | 0.02 | 0.01 | 54 | 1013.7 | |
| 20260503021026 | 51 | 0.0 | 0.0 | 0.00 | 0.02 | 0.01 | 53 | 1014.0 | |
| 20260503020827 | 51 | 0.0 | 0.0 | 0.00 | 0.02 | 0.01 | 54 | 1013.7 | |
| 20260503020523 | 51 | 0.0 | 0.0 | 0.00 | 0.02 | 0.01 | 53 | 1014.0 | |
| 20260503020321 | 51 | 0.0 | 0.0 | 0.00 | 0.02 | 0.01 | 53 | 1013.7 | |
| 20260503020037 | 51 | 0.0 | 0.0 | 0.00 | 0.02 | 0.01 | 52 | 1014.0 | |
| 20260503015819 | 51 | 0.0 | 0.0 | 0.00 | 0.02 | 0.01 | 52 | 1013.7 | |
| 20260503015525 | 50 | 0.0 | 0.0 | 0.00 | 0.02 | 0.01 | 54 | 1014.0 | |
| 20260503015316 | 51 | 0.0 | 0.0 | 0.00 | 0.02 | 0.01 | 53 | 1013.5 | |
| 20260503015025 | 50 | 0.0 | 0.0 | 0.00 | 0.02 | 0.01 | 54 | 1013.9 | |
| 20260503014853 | 51 | 0.0 | 0.0 | 0.00 | 0.02 | 0.01 | 53 | 1013.6 | |
| 20260503014544 | 50 | 0.0 | 0.0 | 0.00 | 0.02 | 0.01 | 56 | 1014.0 | |
| 20260503014325 | 50 | 0.0 | 0.0 | 0.00 | 0.02 | 0.01 | 57 | 1013.5 | |
| 20260503014025 | 50 | 0.0 | 0.0 | 0.00 | 0.02 | 0.01 | 57 | 1013.9 | |
| 20260503013819 | 50 | 0.0 | 0.0 | 0.00 | 0.02 | 0.01 | 58 | 1013.6 | |
| 20260503013525 | 50 | 0.0 | 0.0 | 0.00 | 0.02 | 0.01 | 57 | 1013.9 | |
| 20260503013351 | 50 | 0.0 | 0.0 | 0.00 | 0.02 | 0.01 | 57 | 1013.5 | |
| 20260503013050 | 50 | 0.0 | 0.0 | 0.00 | 0.02 | 0.01 | 57 | 1013.8 | |
| 20260503012844 | 50 | 0.0 | 0.0 | 0.00 | 0.02 | 0.01 | 58 | 1013.5 | |
| 20260503012526 | 50 | 0.0 | 0.0 | 0.00 | 0.02 | 0.01 | 57 | 1013.9 | |
| 20260503012316 | 50 | 0.0 | 0.0 | 0.00 | 0.02 | 0.01 | 57 | 1013.5 | |
| 20260503012025 | 49 | 0.0 | 0.0 | 0.00 | 0.02 | 0.01 | 58 | 1013.8 | |
| 20260503011832 | 50 | 0.0 | 0.0 | 0.00 | 0.02 | 0.01 | 59 | 1013.4 | |
| 20260503011547 | 49 | 0.0 | 0.0 | 0.00 | 0.02 | 0.01 | 57 | 1013.7 | |
| 20260503011325 | 50 | 0.0 | 0.0 | 0.00 | 0.02 | 0.01 | 58 | 1013.4 | |
| 20260503011028 | 50 | 0.0 | 0.0 | 0.00 | 0.02 | 0.01 | 58 | 1013.6 | |
| 20260503010818 | 50 | 0.0 | 0.0 | 0.00 | 0.02 | 0.01 | 59 | 1013.3 | |
| 20260503010528 | 50 | 0.0 | 0.0 | 0.00 | 0.02 | 0.01 | 58 | 1013.5 | |
| 20260503010313 | 50 | 0.0 | 0.0 | 0.00 | 0.02 | 0.01 | 58 | 1013.3 | |
| 20260503010056 | 50 | 0.0 | 0.0 | 0.00 | 0.02 | 0.01 | 58 | 1013.5 | |
| 20260503005829 | 50 | 0.0 | 0.0 | 0.00 | 0.02 | 0.01 | 58 | 1013.2 | |
| 20260503005526 | 50 | 0.0 | 0.0 | 0.00 | 0.02 | 0.01 | 57 | 1013.5 | |
| 20260503005327 | 51 | 0.0 | 0.0 | 0.00 | 0.02 | 0.01 | 58 | 1013.1 | |
| 20260503005028 | 50 | 0.0 | 0.0 | 0.00 | 0.02 | 0.01 | 56 | 1013.3 | |
| 20260503004843 | 51 | 0.0 | 0.0 | 0.00 | 0.02 | 0.01 | 57 | 1013.0 | |
| 20260503004537 | 50 | 0.0 | 0.0 | 0.00 | 0.02 | 0.01 | 56 | 1013.2 | |
| 20260503004317 | 51 | 0.0 | 0.0 | 0.00 | 0.02 | 0.01 | 57 | 1012.8 | |
| 20260503004025 | 51 | 0.0 | 0.0 | 0.00 | 0.02 | 0.01 | 55 | 1013.1 | |
| 20260503003830 | 51 | 0.0 | 0.0 | 0.00 | 0.02 | 0.01 | 55 | 1012.8 | |
| 20260503003525 | 51 | 0.0 | 0.0 | 0.00 | 0.02 | 0.01 | 55 | 1013.1 | |
| 20260503003322 | 52 | 0.0 | 0.0 | 0.00 | 0.02 | 0.01 | 55 | 1012.8 | |
| 20260503003038 | 51 | 0.0 | 0.0 | 0.00 | 0.02 | 0.01 | 54 | 1013.0 | |
| 20260503002834 | 52 | 0.0 | 0.0 | 0.00 | 0.02 | 0.01 | 53 | 1012.7 | |
| 20260503002525 | 52 | 0.0 | 0.0 | 0.00 | 0.02 | 0.01 | 54 | 1012.9 | |
| 20260503002329 | 52 | 0.0 | 0.0 | 0.00 | 0.02 | 0.01 | 54 | 1012.6 | |
| 20260503002025 | 52 | 0.0 | 0.0 | 0.00 | 0.02 | 0.01 | 54 | 1012.9 | |
| 20260503001823 | 53 | 0.0 | 0.0 | 0.00 | 0.02 | 0.01 | 55 | 1012.6 | |
| 20260503001538 | 52 | 0.0 | 0.0 | 0.00 | 0.02 | 0.01 | 52 | 1012.8 | |
| 20260503001325 | 53 | 0.0 | 0.0 | 0.00 | 0.02 | 0.01 | 53 | 1012.6 | |
| 20260503001025 | 53 | 0.0 | 0.0 | 0.00 | 0.02 | 0.01 | 52 | 1012.7 | |
| 20260503000822 | 53 | 0.0 | 0.0 | 0.00 | 0.02 | 0.01 | 53 | 1012.4 | |
| 20260503000525 | 53 | 0.0 | 0.0 | 0.00 | 0.02 | 0.01 | 51 | 1012.7 | |
| 20260503000318 | 54 | 0.0 | 0.0 | 0.00 | 0.02 | 0.01 | 53 | 1012.5 | |
| 20260503000043 | 53 | 0.0 | 0.0 | 0.00 | 0.02 | 0.01 | 50 | 1012.7 | |
| 20260502235526 | 53 | 0.0 | 0.0 | 0.00 | 0.02 | 0.01 | 51 | 1012.6 | |
| 20260502235329 | 54 | 71 | 0.0 | 0.0 | 0.00 | 0.02 | 0.01 | 53 | 1012.4 |
| 20260502235029 | 54 | 0 | 0.0 | 3.0 | 0.00 | 0.02 | 0.01 | 52 | 1012.4 |
| 20260502234825 | 54 | 71 | 0.0 | 0.0 | 0.00 | 0.02 | 0.01 | 53 | 1012.3 |
| 20260502234541 | 54 | 0 | 0.0 | 3.0 | 0.00 | 0.02 | 0.01 | 52 | 1012.4 |
| 20260502234317 | 54 | 71 | 0.0 | 3.0 | 0.00 | 0.02 | 0.01 | 52 | 1012.2 |
| 20260502234026 | 54 | 0 | 0.0 | 7.0 | 0.00 | 0.02 | 0.01 | 52 | 1012.4 |
| 20260502233829 | 54 | 46 | 0.0 | 7.0 | 0.00 | 0.02 | 0.01 | 53 | 1012.2 |
| 20260502233526 | 54 | 0 | 0.0 | 7.0 | 0.00 | 0.02 | 0.01 | 51 | 1012.3 |
| 20260502233323 | 54 | 46 | 1.0 | 7.0 | 0.00 | 0.02 | 0.01 | 53 | 1012.2 |
| 20260502233039 | 54 | 0 | 0.0 | 5.0 | 0.00 | 0.02 | 0.01 | 52 | 1012.2 |
| 20260502232835 | 55 | 256 | 0.0 | 5.0 | 0.00 | 0.02 | 0.01 | 49 | 1012.1 |
| 20260502232525 | 54 | 0 | 0.0 | 5.0 | 0.00 | 0.02 | 0.01 | 52 | 1012.3 |
| 20260502232328 | 55 | 360 | 1.0 | 4.0 | 0.00 | 0.02 | 0.01 | 51 | 1012.1 |
| 20260502232026 | 54 | 0 | 0.0 | 8.0 | 0.00 | 0.02 | 0.01 | 51 | 1012.2 |
| 20260502231820 | 55 | 5 | 0.0 | 8.0 | 0.00 | 0.02 | 0.01 | 50 | 1012.1 |
| 20260502231537 | 54 | 0 | 0.0 | 8.0 | 0.00 | 0.02 | 0.01 | 50 | 1012.2 |
| 20260502231317 | 55 | 360 | 0.0 | 8.0 | 0.00 | 0.02 | 0.01 | 51 | 1012.1 |
| 20260502231026 | 54 | 0 | 0.0 | 8.0 | 0.00 | 0.02 | 0.01 | 47 | 1012.2 |
| 20260502230854 | 55 | 350 | 0.0 | 5.0 | 0.00 | 0.02 | 0.01 | 48 | 1012.1 |
| 20260502230526 | 54 | 0 | 0.0 | 5.0 | 0.00 | 0.02 | 0.01 | 50 | 1012.3 |
| 20260502230327 | 55 | 69 | 0.0 | 5.0 | 0.00 | 0.02 | 0.01 | 52 | 1012.1 |
| 20260502230038 | 54 | 249 | 0.0 | 3.0 | 0.00 | 0.02 | 0.01 | 47 | 1012.2 |
| 20260502225819 | 55 | 19 | 0.0 | 3.0 | 0.00 | 0.02 | 0.01 | 47 | 1012.1 |
| 20260502225525 | 54 | 43 | 0.0 | 3.0 | 0.00 | 0.02 | 0.01 | 49 | 1012.2 |
| 20260502225332 | 55 | 100 | 0.0 | 3.0 | 0.00 | 0.02 | 0.01 | 50 | 1012.0 |
| 20260502225025 | 55 | 0 | 0.0 | 3.0 | 0.00 | 0.02 | 0.01 | 49 | 1012.2 |
| 20260502224826 | 55 | 40 | 0.0 | 3.0 | 0.00 | 0.02 | 0.01 | 50 | 1012.0 |
| 20260502224539 | 55 | 0 | 0.0 | 6.0 | 0.00 | 0.02 | 0.01 | 48 | 1012.1 |
| 20260502224321 | 55 | 306 | 0.0 | 6.0 | 0.00 | 0.02 | 0.01 | 51 | 1012.0 |
| 20260502224022 | 55 | 0 | 0.0 | 6.0 | 0.00 | 0.02 | 0.01 | 51 | 1012.1 |
| 20260502223817 | 55 | 22 | 1.0 | 6.0 | 0.00 | 0.02 | 0.01 | 48 | 1012.0 |
| 20260502223522 | 55 | 0 | 0.0 | 6.0 | 0.00 | 0.02 | 0.01 | 49 | 1012.1 |
| 20260502223351 | 55 | 65 | 0.0 | 5.0 | 0.00 | 0.02 | 0.01 | 51 | 1011.9 |
| 20260502223038 | 55 | 0 | 0.0 | 4.0 | 0.00 | 0.02 | 0.01 | 48 | 1012.1 |
| 20260502222843 | 56 | 19 | 0.0 | 5.0 | 0.00 | 0.02 | 0.01 | 48 | 1011.9 |
| 20260502222529 | 55 | 39 | 0.0 | 4.0 | 0.00 | 0.02 | 0.01 | 48 | 1012.1 |